Home > Weather > Udon Thani > Past weeks

Flag for Thailand Past Weather in Udon Thani, Thailand — Yesterday and Last 2 Weeks

Now
88 °F

Passing clouds.


Feels Like: 98 °F
Forecast: 77 / 92 °F
Wind: 3 mph from Southwest

Location: Udon Thani Airport

Current Time: Jul 26, 2016 at 9:16:59 PM

Latest Report: Jul 26, 2016 at 7:00 PM


Visibility: N/A

Pressure: 29.68 "Hg

Humidity: 66%

Dew Point: 75 °F

Location of Udon ThaniLocation

Past Weather in Udon Thani — Graph

°F

Udon Thani Temperature Yesterday

Maximum temperature yesterday: 93 °F (at 2:00 PM)
Minimum temperature yesterday: 77 °F (at 3:00 AM)
Average temperature yesterday: 85 °F

High & Low Weather Summary for the Past Weeks

 TemperatureHumidityPressure
High97 °F (Jul 17, 3:00 PM)100% (Jul 14, 9:00 PM)29.89 "Hg (Jul 14, 9:00 PM)
Low73 °F (Jul 18, 9:00 PM)50% (Jul 18, 4:00 PM)29.56 "Hg (Jul 13, 4:00 PM)
Average83 °F80%29.75 "Hg
* Reported Jul 11 7:00 PM — Jul 26 7:00 PM, Udon Thani, Weather by CustomWeather, © 2016

Note: Actual official high and low records may vary slightly from our data, if they occured in-between our weather recording intervals... More about our weather records

Advertising

Udon Thani Weather History for the Previous 24 Hours

Scroll right to see more
 ConditionsComfort  
Time TempWeatherWind HumidityBarometerVisibility
7:00 PM
Tue, Jul 26
88 °FPassing clouds.3 mph66%29.68 "HgN/A
6:00 PM90 °FSunny.6 mph63%29.65 "Hg10 mi
5:00 PM91 °FPassing clouds.8 mph59%29.65 "HgN/A
4:00 PM91 °FPassing clouds.3 mph63%29.65 "HgN/A
3:00 PM91 °FPassing clouds.6 mph63%29.68 "HgN/A
2:00 PM91 °FPassing clouds.5 mph59%29.71 "HgN/A
1:00 PM88 °FPassing clouds.6 mph66%29.74 "HgN/A
12:00 PM88 °FPassing clouds.3 mph66%29.77 "HgN/A
11:00 AM84 °FPassing clouds.5 mph74%29.80 "HgN/A
10:00 AM82 °FPassing clouds.3 mph79%29.80 "HgN/A
9:00 AM79 °FLight rain. Broken clouds.3 mph89%29.83 "HgN/A
8:00 AM79 °FScattered clouds.7 mph84%29.83 "HgN/A
7:00 AM79 °FScattered showers. Partly sunny.6 mph89%29.83 "HgN/A
6:00 AM79 °FPassing clouds.3 mph89%29.80 "HgN/A
5:00 AM79 °FPassing clouds.3 mph89%29.77 "HgN/A
4:00 AM79 °FPassing clouds.5 mph84%29.77 "HgN/A
3:00 AM79 °FClear.2 mph94%29.77 "Hg10 mi
2:00 AM81 °FClear.No wind89%29.77 "Hg10 mi
1:00 AM79 °FPassing clouds.3 mph94%29.77 "HgN/A
12:00 AM81 °FClear.2 mph89%29.80 "Hg10 mi
11:00 PM
Mon, Jul 25
81 °FClear.1 mph89%29.80 "Hg10 mi
10:00 PM82 °FPassing clouds.1 mph84%29.80 "HgN/A
9:00 PM84 °FPassing clouds.5 mph74%29.77 "HgN/A
Weather by CustomWeather, © 2016

See weather overviewHow to use our weather pages